{"data":{"norad_id":63585,"epoch":"2026-09-20T18:59:50.800416Z","epoch_age_seconds":127302,"freshness":"FRESH","line1":"1 63585U 25076S   26263.79156019  .00009481  00000+0  35351-3 0  9995","line2":"2 63585  42.9975 299.4353 0000311 339.7798  20.3042 15.27588176 81674","mean_motion":15.27588176,"eccentricity":3.11e-5,"inclination_deg":42.9975,"raan_deg":299.4353,"arg_perigee_deg":339.7798,"mean_anomaly_deg":20.3042,"bstar":0.00035351,"rev_number":8167,"period_min":94.266244176533,"perigee_km":482.81123213734,"apogee_km":483.23799638975,"semimajor_km":6861.1616142635,"source":"CELESTRAK","updated_at":"2026-09-21T09:00:35.048006Z"}}